Printer-friendly version

IAU Minor Planet Center

Minor Planet Center

MPEC 2005-B15 : 2005 BL1

The following Minor Planet Electronic Circular may be linked-to from your own Web pages, but must not otherwise be redistributed electronically.


Read MPEC 2005-B14 Read MPEC 2005-B16


M.P.E.C. 2005-B15                                Issued 2005 Jan. 17, 23:53 UT

     The Minor Planet Electronic Circulars contain information on unusual
         minor planets and routine data on comets.  They are published
   on behalf of Commission 20 of the International Astronomical Union by the
          Minor Planet Center, Smithsonian Astrophysical Observatory,
                          Cambridge, MA 02138, U.S.A.

                  Supported in part by the Brinson Foundation
             Prepared using the Tamkin Foundation Computer Network

                              MPC@CFA.HARVARD.EDU
          URL http://cfa-www.harvard.edu/iau/mpc.html  ISSN 1523-6714

                                   2005 BL1

Observations:
     K05B01L* C2005 01 16.34528 08 43 04.91 +25 20 51.0          19.6   EB015704
     K05B01L  C2005 01 16.35837 08 43 00.01 +25 15 22.4          19.5   EB015704
     K05B01L  C2005 01 16.37139 08 42 55.15 +25 09 51.3          19.7   EB015704
     K05B01L  C2005 01 16.38490 08 42 50.16 +25 04 08.1          20.2   EB015704
     K05B01L  C2005 01 16.39793 08 42 45.30 +24 58 37.1          19.9   EB015704
     K05B01L  C2005 01 17.34563 08 37 57.07 +18 05 06.6          19.6   EB015704
     K05B01L  C2005 01 17.35477 08 37 53.70 +18 01 00.4          19.1   EB015704
     K05B01L  C2005 01 17.36027 08 37 51.87 +17 58 33.4          19.9   EB015704
     K05B01L  C2005 01 17.36867 08 37 48.74 +17 54 45.6          20.1   EB015704
     K05B01L  C2005 01 17.37381 08 37 46.91 +17 52 26.9          20.0   EB015704
     K05B01L  C2005 01 17.38263 08 37 43.70 +17 48 27.7          20.0   EB015704
     K05B01L  C2005 01 17.38727 08 37 42.03 +17 46 21.8          20.2   EB015704
     K05B01L  C2005 01 17.39553 08 37 39.08 +17 42 37.8          20.1   EB015704
     K05B01L  C2005 01 17.40025 08 37 37.42 +17 40 31.2          19.9   EB015704
     K05B01L  C2005 01 17.40897 08 37 34.32 +17 36 34.9          19.0   EB015704
     K05B01L  C2005 01 17.96485 08 34 53.59 +13 22 56.4                 EB015246
     K05B01L  C2005 01 17.96503 08 34 53.54 +13 22 48.5                 EB015246
     K05B01L  C2005 01 17.96681 08 34 52.94 +13 22 01.5                 EB015246
     K05B01L  C2005 01 17.96846 08 34 52.37 +13 21 16.7                 EB015246

Observer details:
246 Klet Observatory-KLENOT.  Observer M. Tichy.  1.06-m KLENOT Telescope
    + CCD.
704 Lincoln Laboratory ETS, New Mexico.  Observers M. Blythe, F. Shelly,
    M. Bezpalko, R. Huber, L. Manguso, D. Torres, R. Kracke, M. McCleary,
    H. Stange, A. Milner.  Measurers J. Stuart, R. Sayer, J. Evans, J. Kommers.
    1.0-m f/2.15 reflector + CCD.

Orbital elements:
2005 BL1
Epoch 2005 Jan. 10.0 TT = JDT 2453380.5                 MPC
M 348.65391              (2000.0)            P               Q
n   0.53084297     Peri.  195.18920     -0.66448262     -0.67171973
a   1.5106320      Node   297.72796     +0.71840480     -0.45348575
e   0.3190059      Incl.   21.71472     +0.20580910     -0.58578434
P   1.86           H   24.6           G   0.15
From 19 observations 2005 Jan. 16-17.

Ephemeris:
2005 BL1                 a,e,i = 1.51, 0.32, 22                  q = 1.0287
Date    TT    R. A. (2000) Decl.     Delta      r     Elong.  Phase     V
2005 01 10    09 18.34   +56 26.2    0.084    1.049   139.8    37.3    20.8
2005 01 11    09 12.59   +53 10.4    0.078    1.047   143.1    34.4    20.6
2005 01 12    09 06.87   +49 23.3    0.073    1.045   146.8    31.0    20.3
2005 01 13    09 01.23   +45 00.3    0.068    1.044   151.0    27.2    20.1
2005 01 14    08 55.67   +39 57.3    0.064    1.042   155.8    22.8    19.8
2005 01 15    08 50.22   +34 11.9    0.060    1.041   161.0    18.0    19.5
2005 01 16    08 44.90   +27 44.4    0.057    1.039   166.1    13.1    19.2
2005 01 17    08 39.72   +20 39.8    0.055    1.038   169.7     9.7    19.0
2005 01 18    08 34.70   +13 08.7    0.054    1.037   168.9    10.6    19.0
2005 01 19    08 29.85   +05 26.5    0.054    1.036   163.8    15.3    19.2
2005 01 20    08 25.17   -02 09.0    0.054    1.034   157.3    21.5    19.4
2005 01 21    08 20.67   -09 21.6    0.056    1.034   150.6    27.8    19.7
2005 01 22    08 16.34   -15 59.6    0.059    1.033   144.3    33.8    19.9
2005 01 23    08 12.20   -21 56.8    0.062    1.032   138.5    39.2    20.2
2005 01 24    08 08.23   -27 11.9    0.066    1.031   133.4    43.9    20.5
2005 01 25    08 04.44   -31 46.8    0.071    1.031   128.9    48.1    20.7
2005 01 26    08 00.83   -35 45.4    0.076    1.030   124.9    51.6    21.0
2005 01 27    07 57.38   -39 12.0    0.081    1.030   121.5    54.6    21.2
2005 01 28    07 54.10   -42 11.2    0.087    1.029   118.6    57.2    21.4
2005 01 29    07 50.98   -44 46.9    0.093    1.029   116.0    59.4    21.6
2005 01 30    07 48.02   -47 02.6    0.099    1.029   113.8    61.2    21.8

Timothy B. Spahr             (C) Copyright 2005 MPC           M.P.E.C. 2005-B15

Read MPEC 2005-B14 Read MPEC 2005-B16


Our Web policy. Index to the CBAT/MPC/ICQ pages.


Valid HTML 4.01!